Time,TemperatureF,DewpointF,PressureIn,WindDirection,WindDirectionDegrees,WindSpeedMPH,WindSpeedGustMPH,Humidity,HourlyPrecipIn,Conditions,Clouds,dailyrainin,SoftwareType,DateUTC
2013-03-08 00:02:00,48.6,44.8,30.19,NW,319,0.0,0.0,87,0.00,,,0.00,meteohub,2013-03-08 05:02:00,
2013-03-08 00:07:00,48.6,44.8,30.19,NW,319,0.0,1.0,87,0.00,,,0.00,meteohub,2013-03-08 05:07:00,
2013-03-08 00:17:00,48.4,45.0,30.18,NW,319,0.0,1.0,88,0.00,,,0.00,meteohub,2013-03-08 05:17:00,
2013-03-08 00:22:00,48.0,44.4,30.18,NW,319,0.0,0.0,87,0.00,,,0.00,meteohub,2013-03-08 05:22:00,
2013-03-08 00:27:00,47.7,44.2,30.18,NW,319,0.0,0.0,88,0.00,,,0.00,meteohub,2013-03-08 05:27:00,
2013-03-08 00:32:00,47.5,44.1,30.18,NW,319,0.0,0.0,88,0.00,,,0.00,meteohub,2013-03-08 05:32:00,
2013-03-08 00:37:00,47.1,44.1,30.18,NW,319,0.0,0.0,89,0.00,,,0.00,meteohub,2013-03-08 05:37:00,
2013-03-08 00:42:00,46.9,43.9,30.17,NW,319,0.0,0.0,89,0.00,,,0.00,meteohub,2013-03-08 05:42:00,
2013-03-08 00:47:00,46.8,43.7,30.18,NW,319,0.0,0.0,89,0.00,,,0.00,meteohub,2013-03-08 05:47:00,
2013-03-08 00:52:00,46.4,43.7,30.18,NW,319,0.0,1.0,90,0.00,,,0.00,meteohub,2013-03-08 05:52:00,
2013-03-08 00:57:00,46.4,43.9,30.18,NW,319,0.0,1.0,91,0.00,,,0.00,meteohub,2013-03-08 05:57:00,
2013-03-08 01:02:00,46.6,44.1,30.18,NW,319,0.0,1.0,91,0.00,,,0.00,meteohub,2013-03-08 06:02:00,
2013-03-08 01:07:00,46.6,44.1,30.18,NW,319,0.0,1.0,91,0.00,,,0.00,meteohub,2013-03-08 06:07:00,
2013-03-08 01:12:00,46.6,44.1,30.18,NW,319,0.0,1.0,91,0.00,,,0.00,meteohub,2013-03-08 06:12:00,
2013-03-08 01:17:00,46.6,44.1,30.18,NW,319,0.0,1.0,91,0.00,,,0.00,meteohub,2013-03-08 06:17:00,
2013-03-08 01:22:00,46.6,44.1,30.18,NW,319,0.0,1.0,91,0.00,,,0.00,meteohub,2013-03-08 06:22:00,
2013-03-08 01:27:00,46.9,44.4,30.18,NW,319,1.0,2.0,91,0.00,,,0.00,meteohub,2013-03-08 06:27:00,
2013-03-08 01:32:00,47.1,44.6,30.18,NW,319,1.0,2.0,91,0.00,,,0.00,meteohub,2013-03-08 06:32:00,
2013-03-08 01:37:00,47.3,44.8,30.18,NW,319,1.0,2.0,91,0.00,,,0.00,meteohub,2013-03-08 06:37:00,
2013-03-08 01:42:00,47.5,45.0,30.18,NW,319,3.0,3.0,91,0.00,,,0.00,meteohub,2013-03-08 06:42:00,
2013-03-08 01:47:00,47.5,44.8,30.18,NW,319,1.0,3.0,90,0.00,,,0.00,meteohub,2013-03-08 06:47:00,
2013-03-08 01:52:00,47.5,44.8,30.18,NW,319,0.0,3.0,90,0.00,,,0.00,meteohub,2013-03-08 06:52:00,
2013-03-08 01:57:00,47.5,44.8,30.18,NW,319,2.0,3.0,90,0.00,,,0.00,meteohub,2013-03-08 06:57:00,
2013-03-08 02:02:00,47.7,45.1,30.18,NW,319,3.0,3.0,91,0.00,,,0.00,meteohub,2013-03-08 07:02:00,
2013-03-08 02:07:00,47.7,45.0,30.18,NW,319,2.0,4.0,90,0.00,,,0.00,meteohub,2013-03-08 07:07:00,
2013-03-08 02:12:00,47.7,45.0,30.17,NW,319,3.0,4.0,90,0.00,,,0.00,meteohub,2013-03-08 07:12:00,
2013-03-08 02:17:00,47.7,45.0,30.17,NW,319,3.0,4.0,90,0.00,,,0.00,meteohub,2013-03-08 07:17:00,
2013-03-08 02:27:00,47.7,45.1,30.16,NNE,17,1.0,5.0,91,0.00,,,0.00,meteohub,2013-03-08 07:27:00,
2013-03-08 02:32:00,47.3,44.8,30.16,NNE,13,3.0,5.0,91,0.00,,,0.00,meteohub,2013-03-08 07:32:00,
2013-03-08 02:37:00,46.9,44.4,30.17,NNE,13,2.0,4.0,91,0.00,,,0.00,meteohub,2013-03-08 07:37:00,
2013-03-08 02:42:00,46.9,44.8,30.16,North,11,2.0,4.0,92,0.00,,,0.00,meteohub,2013-03-08 07:42:00,
2013-03-08 02:47:00,46.8,44.6,30.16,North,11,1.0,4.0,92,0.00,,,0.00,meteohub,2013-03-08 07:47:00,
2013-03-08 02:52:00,46.6,44.1,30.16,North,11,2.0,4.0,91,0.00,,,0.00,meteohub,2013-03-08 07:52:00,
2013-03-08 02:57:00,46.4,44.2,30.16,NNE,15,3.0,3.0,92,0.00,,,0.00,meteohub,2013-03-08 07:57:00,
2013-03-08 03:02:00,45.9,43.3,30.16,NNE,30,2.0,4.0,91,0.00,,,0.00,meteohub,2013-03-08 08:02:00,
2013-03-08 03:07:00,45.9,43.7,30.16,NNE,30,1.0,4.0,92,0.00,,,0.00,meteohub,2013-03-08 08:07:00,
2013-03-08 03:12:00,45.7,43.5,30.16,NNE,30,1.0,4.0,92,0.00,,,0.00,meteohub,2013-03-08 08:12:00,
2013-03-08 03:17:00,45.3,43.2,30.16,NNE,30,1.0,3.0,92,0.00,,,0.00,meteohub,2013-03-08 08:17:00,
2013-03-08 03:22:00,45.3,43.3,30.16,NNE,30,1.0,3.0,93,0.00,,,0.00,meteohub,2013-03-08 08:22:00,
2013-03-08 03:27:00,45.3,43.3,30.16,NE,37,1.0,3.0,93,0.00,,,0.00,meteohub,2013-03-08 08:27:00,
2013-03-08 03:32:00,45.7,43.7,30.16,NE,37,2.0,4.0,93,0.00,,,0.00,meteohub,2013-03-08 08:32:00,
2013-03-08 03:37:00,45.7,43.7,30.16,NE,37,2.0,4.0,93,0.00,,,0.00,meteohub,2013-03-08 08:37:00,
2013-03-08 03:42:00,45.5,43.5,30.16,NE,39,2.0,4.0,93,0.00,,,0.00,meteohub,2013-03-08 08:42:00,
2013-03-08 03:47:00,45.3,43.3,30.16,NE,39,3.0,4.0,93,0.00,,,0.00,meteohub,2013-03-08 08:47:00,
2013-03-08 03:52:00,45.3,43.7,30.16,NE,39,0.0,4.0,94,0.00,,,0.00,meteohub,2013-03-08 08:52:00,
2013-03-08 03:57:00,45.1,43.5,30.16,NE,39,3.0,4.0,94,0.00,,,0.00,meteohub,2013-03-08 08:57:00,
2013-03-08 04:02:00,45.3,43.7,30.16,NE,39,2.0,4.0,94,0.00,,,0.00,meteohub,2013-03-08 09:02:00,
2013-03-08 04:07:00,45.1,43.5,30.16,NE,39,2.0,4.0,94,0.00,,,0.00,meteohub,2013-03-08 09:07:00,
2013-03-08 04:17:00,45.0,43.3,30.16,NE,39,2.0,4.0,94,0.00,,,0.00,meteohub,2013-03-08 09:17:00,
2013-03-08 04:22:00,45.0,43.3,30.16,NE,39,2.0,3.0,94,0.00,,,0.00,meteohub,2013-03-08 09:22:00,
2013-03-08 04:27:00,45.0,43.3,30.16,NE,39,4.0,4.0,94,0.00,,,0.00,meteohub,2013-03-08 09:27:00,
2013-03-08 04:32:00,44.8,43.2,30.16,NE,39,2.0,4.0,94,0.00,,,0.00,meteohub,2013-03-08 09:32:00,
2013-03-08 04:37:00,44.8,43.2,30.16,NE,39,3.0,4.0,94,0.00,,,0.00,meteohub,2013-03-08 09:37:00,
2013-03-08 04:47:00,45.1,43.9,30.16,NE,39,2.0,4.0,95,0.00,,,0.00,meteohub,2013-03-08 09:47:00,
2013-03-08 04:52:00,45.1,43.9,30.16,NE,39,3.0,4.0,95,0.00,,,0.00,meteohub,2013-03-08 09:52:00,
2013-03-08 04:57:00,45.1,43.9,30.16,NE,39,1.0,4.0,95,0.00,,,0.00,meteohub,2013-03-08 09:57:00,
2013-03-08 05:02:00,45.0,43.7,30.17,NE,39,2.0,4.0,95,0.00,,,0.00,meteohub,2013-03-08 10:02:00,
2013-03-08 05:07:00,44.8,43.5,30.17,NE,39,0.0,4.0,95,0.00,,,0.00,meteohub,2013-03-08 10:07:00,
2013-03-08 05:12:00,44.8,43.5,30.17,NE,39,0.0,4.0,95,0.00,,,0.00,meteohub,2013-03-08 10:12:00,
2013-03-08 05:17:00,44.6,43.3,30.17,NE,39,1.0,4.0,95,0.00,,,0.00,meteohub,2013-03-08 10:17:00,
2013-03-08 05:22:00,44.6,43.3,30.17,NE,39,2.0,4.0,95,0.00,,,0.00,meteohub,2013-03-08 10:22:00,
2013-03-08 05:27:00,44.8,43.5,30.17,NE,39,0.0,4.0,95,0.00,,,0.00,meteohub,2013-03-08 10:27:00,
2013-03-08 05:32:00,44.8,43.5,30.17,NE,39,0.0,4.0,95,0.00,,,0.00,meteohub,2013-03-08 10:32:00,
2013-03-08 05:37:00,44.4,43.2,30.17,NE,39,1.0,4.0,95,0.00,,,0.00,meteohub,2013-03-08 10:37:00,
2013-03-08 05:42:00,44.4,43.2,30.17,NE,39,4.0,4.0,95,0.00,,,0.00,meteohub,2013-03-08 10:42:00,
2013-03-08 05:47:00,44.6,43.3,30.17,NE,39,4.0,5.0,95,0.00,,,0.00,meteohub,2013-03-08 10:47:00,
2013-03-08 05:52:00,44.6,43.3,30.17,NE,39,0.0,5.0,95,0.00,,,0.00,meteohub,2013-03-08 10:52:00,
2013-03-08 05:57:00,44.4,43.2,30.17,NE,39,0.0,5.0,95,0.00,,,0.00,meteohub,2013-03-08 10:57:00,
2013-03-08 06:02:00,44.2,43.0,30.17,NE,39,0.0,4.0,95,0.00,,,0.00,meteohub,2013-03-08 11:02:00,
2013-03-08 06:07:00,44.1,42.8,30.17,NE,39,0.0,3.0,95,0.00,,,0.00,meteohub,2013-03-08 11:07:00,
2013-03-08 06:12:00,44.2,43.0,30.17,NE,39,2.0,2.0,95,0.00,,,0.00,meteohub,2013-03-08 11:12:00,
2013-03-08 06:17:00,44.2,43.0,30.17,NE,39,0.0,3.0,95,0.00,,,0.00,meteohub,2013-03-08 11:17:00,
2013-03-08 06:22:00,44.2,43.0,30.18,NE,39,2.0,3.0,95,0.00,,,0.00,meteohub,2013-03-08 11:22:00,
2013-03-08 06:32:00,44.4,43.2,30.18,NE,38,3.0,3.0,95,0.00,,,0.00,meteohub,2013-03-08 11:32:00,
2013-03-08 06:37:00,44.4,43.2,30.18,NE,38,2.0,3.0,95,0.00,,,0.00,meteohub,2013-03-08 11:37:00,
2013-03-08 06:42:00,44.6,43.3,30.18,NE,38,2.0,4.0,95,0.00,,,0.00,meteohub,2013-03-08 11:42:00,
2013-03-08 06:52:00,44.2,43.0,30.18,NE,38,3.0,4.0,95,0.00,,,0.00,meteohub,2013-03-08 11:52:00,
2013-03-08 06:57:00,44.4,43.2,30.18,NE,38,3.0,4.0,95,0.00,,,0.00,meteohub,2013-03-08 11:57:00,
2013-03-08 07:02:00,44.4,43.2,30.19,NNE,33,3.0,4.0,95,0.00,,,0.00,meteohub,2013-03-08 12:02:00,
2013-03-08 07:07:00,44.8,43.5,30.19,NNE,30,3.0,5.0,95,0.00,,,0.00,meteohub,2013-03-08 12:07:00,
2013-03-08 07:12:00,45.0,43.7,30.19,NNE,30,3.0,5.0,95,0.00,,,0.00,meteohub,2013-03-08 12:12:00,
2013-03-08 07:17:00,45.0,43.7,30.19,NNE,29,3.0,5.0,95,0.00,,,0.00,meteohub,2013-03-08 12:17:00,
2013-03-08 07:22:00,45.1,43.9,30.19,NNE,27,2.0,4.0,95,0.00,,,0.00,meteohub,2013-03-08 12:22:00,
2013-03-08 07:27:00,45.3,44.1,30.19,NNE,26,2.0,5.0,95,0.00,,,0.00,meteohub,2013-03-08 12:27:00,
2013-03-08 07:32:00,45.7,44.4,30.19,NNE,26,1.0,5.0,95,0.00,,,0.00,meteohub,2013-03-08 12:32:00,
2013-03-08 07:37:00,45.9,44.4,30.19,NNE,22,3.0,5.0,95,0.00,,,0.00,meteohub,2013-03-08 12:37:00,
2013-03-08 07:42:00,46.0,44.6,30.19,NNE,22,1.0,4.0,95,0.00,,,0.00,meteohub,2013-03-08 12:42:00,
2013-03-08 07:47:00,46.4,45.0,30.19,NNE,15,2.0,4.0,95,0.00,,,0.00,meteohub,2013-03-08 12:47:00,
2013-03-08 07:52:00,46.8,45.1,30.19,North,11,4.0,6.0,94,0.00,,,0.00,meteohub,2013-03-08 12:52:00,
2013-03-08 07:57:00,47.1,45.5,30.19,North,10,2.0,6.0,94,0.00,,,0.00,meteohub,2013-03-08 12:57:00,
2013-03-08 08:02:00,47.5,45.9,30.19,North,9,3.0,6.0,94,0.00,,,0.00,meteohub,2013-03-08 13:02:00,
2013-03-08 08:07:00,47.8,45.9,30.19,NNE,12,1.0,6.0,93,0.00,,,0.00,meteohub,2013-03-08 13:07:00,
2013-03-08 08:12:00,48.4,46.2,30.19,NNE,22,2.0,6.0,92,0.00,,,0.00,meteohub,2013-03-08 13:12:00,
2013-03-08 08:17:00,48.7,45.9,30.20,NNE,27,4.0,5.0,90,0.00,,,0.00,meteohub,2013-03-08 13:17:00,
2013-03-08 08:22:00,49.3,46.2,30.20,NNE,20,2.0,6.0,89,0.00,,,0.00,meteohub,2013-03-08 13:22:00,
2013-03-08 08:27:00,49.6,46.2,30.20,NNE,24,3.0,6.0,88,0.00,,,0.00,meteohub,2013-03-08 13:27:00,
2013-03-08 08:32:00,50.2,46.2,30.21,NNE,28,1.0,6.0,86,0.00,,,0.00,meteohub,2013-03-08 13:32:00,
2013-03-08 08:37:00,50.7,46.8,30.21,NNE,24,2.0,6.0,86,0.00,,,0.00,meteohub,2013-03-08 13:37:00,
2013-03-08 08:42:00,51.4,47.1,30.21,NNE,25,4.0,5.0,85,0.00,,,0.00,meteohub,2013-03-08 13:42:00,
2013-03-08 08:47:00,52.0,46.9,30.21,NNE,19,3.0,5.0,83,0.00,,,0.00,meteohub,2013-03-08 13:47:00,
2013-03-08 08:52:00,52.3,46.4,30.21,NNE,23,2.0,7.0,80,0.00,,,0.00,meteohub,2013-03-08 13:52:00,
2013-03-08 08:57:00,53.1,47.1,30.21,NNE,26,0.0,7.0,80,0.00,,,0.00,meteohub,2013-03-08 13:57:00,
2013-03-08 09:02:00,54.0,47.7,30.21,NNE,20,2.0,7.0,79,0.00,,,0.00,meteohub,2013-03-08 14:02:00,
2013-03-08 09:07:00,54.5,46.8,30.21,NNE,26,0.0,6.0,75,0.00,,,0.00,meteohub,2013-03-08 14:07:00,
2013-03-08 09:12:00,55.2,47.5,30.21,NNE,24,1.0,6.0,75,0.00,,,0.00,meteohub,2013-03-08 14:12:00,
2013-03-08 09:17:00,55.9,47.5,30.21,NNE,18,4.0,6.0,73,0.00,,,0.00,meteohub,2013-03-08 14:17:00,
2013-03-08 09:22:00,56.3,46.9,30.22,NE,43,5.0,6.0,71,0.00,,,0.00,meteohub,2013-03-08 14:22:00,
2013-03-08 09:27:00,56.7,46.2,30.22,NNE,31,6.0,7.0,68,0.00,,,0.00,meteohub,2013-03-08 14:27:00,
2013-03-08 09:37:00,57.7,46.0,30.21,NNE,17,6.0,8.0,65,0.00,,,0.00,meteohub,2013-03-08 14:37:00,
2013-03-08 09:42:00,58.5,45.9,30.21,NE,48,4.0,8.0,63,0.00,,,0.00,meteohub,2013-03-08 14:42:00,
2013-03-08 09:47:00,59.4,45.9,30.21,NE,45,5.0,9.0,61,0.00,,,0.00,meteohub,2013-03-08 14:47:00,
2013-03-08 09:52:00,59.5,45.7,30.21,NE,46,3.0,9.0,60,0.00,,,0.00,meteohub,2013-03-08 14:52:00,
2013-03-08 09:57:00,60.4,44.6,30.21,ENE,57,2.0,8.0,56,0.00,,,0.00,meteohub,2013-03-08 14:57:00,
2013-03-08 10:02:00,60.8,44.1,30.21,ENE,57,4.0,10.0,54,0.00,,,0.00,meteohub,2013-03-08 15:02:00,
2013-03-08 10:07:00,61.0,43.7,30.21,NNE,24,5.0,10.0,53,0.00,,,0.00,meteohub,2013-03-08 15:07:00,
2013-03-08 10:12:00,61.5,43.2,30.21,NNE,21,2.0,10.0,51,0.00,,,0.00,meteohub,2013-03-08 15:12:00,
2013-03-08 10:17:00,62.1,43.2,30.21,NE,43,3.0,9.0,50,0.00,,,0.00,meteohub,2013-03-08 15:17:00,
2013-03-08 10:22:00,62.4,43.0,30.20,North,5,3.0,9.0,49,0.00,,,0.00,meteohub,2013-03-08 15:22:00,
2013-03-08 10:27:00,62.8,41.2,30.20,NE,38,6.0,9.0,45,0.00,,,0.00,meteohub,2013-03-08 15:27:00,
2013-03-08 10:32:00,63.0,41.9,30.20,NNW,342,5.0,9.0,46,0.00,,,0.00,meteohub,2013-03-08 15:32:00,
2013-03-08 10:37:00,63.0,41.4,30.20,NNW,333,6.0,9.0,45,0.00,,,0.00,meteohub,2013-03-08 15:37:00,
2013-03-08 10:42:00,63.1,41.5,30.20,North,355,3.0,9.0,45,0.00,,,0.00,meteohub,2013-03-08 15:42:00,
2013-03-08 10:47:00,63.7,42.4,30.20,North,355,6.0,9.0,46,0.00,,,0.00,meteohub,2013-03-08 15:47:00,
2013-03-08 10:52:00,63.7,41.4,30.20,North,5,2.0,9.0,44,0.00,,,0.00,meteohub,2013-03-08 15:52:00,
2013-03-08 10:57:00,64.0,41.2,30.20,NNW,327,3.0,9.0,43,0.00,,,0.00,meteohub,2013-03-08 15:57:00,
2013-03-08 11:02:00,64.6,41.5,30.20,NNW,327,1.0,9.0,43,0.00,,,0.00,meteohub,2013-03-08 16:02:00,
2013-03-08 11:07:00,64.9,43.2,30.20,NNE,15,6.0,6.0,45,0.00,,,0.00,meteohub,2013-03-08 16:07:00,
2013-03-08 11:12:00,64.9,40.6,30.20,NNE,32,2.0,9.0,41,0.00,,,0.00,meteohub,2013-03-08 16:12:00,
2013-03-08 11:17:00,64.9,40.6,30.21,NNW,348,0.0,9.0,41,0.00,,,0.00,meteohub,2013-03-08 16:17:00,
2013-03-08 11:22:00,65.5,41.7,30.20,NW,324,7.0,10.0,42,0.00,,,0.00,meteohub,2013-03-08 16:22:00,
2013-03-08 11:27:00,65.5,41.7,30.20,North,0,5.0,10.0,42,0.00,,,0.00,meteohub,2013-03-08 16:27:00,
2013-03-08 11:32:00,65.8,41.5,30.20,North,5,6.0,10.0,41,0.00,,,0.00,meteohub,2013-03-08 16:32:00,
2013-03-08 11:37:00,65.8,42.1,30.20,NNE,22,7.0,10.0,42,0.00,,,0.00,meteohub,2013-03-08 16:37:00,
2013-03-08 11:42:00,65.8,41.5,30.20,NNE,24,2.0,10.0,41,0.00,,,0.00,meteohub,2013-03-08 16:42:00,
2013-03-08 11:47:00,66.4,41.4,30.19,North,5,4.0,10.0,40,0.00,,,0.00,meteohub,2013-03-08 16:47:00,
2013-03-08 11:52:00,66.4,40.6,30.19,NNE,30,1.0,8.0,39,0.00,,,0.00,meteohub,2013-03-08 16:52:00,
2013-03-08 11:57:00,66.6,40.1,30.19,NNE,12,2.0,11.0,38,0.00,,,0.00,meteohub,2013-03-08 16:57:00,
2013-03-08 12:02:00,66.4,39.4,30.19,West,281,5.0,11.0,37,0.00,,,0.00,meteohub,2013-03-08 17:02:00,
2013-03-08 12:07:00,66.6,40.8,30.19,North,355,2.0,11.0,39,0.00,,,0.00,meteohub,2013-03-08 17:07:00,
2013-03-08 12:12:00,66.9,39.7,30.18,NNE,17,2.0,10.0,37,0.00,,,0.00,meteohub,2013-03-08 17:12:00,
2013-03-08 12:17:00,67.6,40.5,30.18,West,281,1.0,9.0,37,0.00,,,0.00,meteohub,2013-03-08 17:17:00,
2013-03-08 12:22:00,68.2,40.3,30.18,NE,35,4.0,9.0,36,0.00,,,0.00,meteohub,2013-03-08 17:22:00,
2013-03-08 12:27:00,68.2,40.3,30.18,North,355,4.0,6.0,36,0.00,,,0.00,meteohub,2013-03-08 17:27:00,
2013-03-08 12:32:00,68.4,40.3,30.18,NE,36,5.0,11.0,36,0.00,,,0.00,meteohub,2013-03-08 17:32:00,
2013-03-08 12:37:00,68.7,41.4,30.17,NE,38,1.0,11.0,37,0.00,,,0.00,meteohub,2013-03-08 17:37:00,
2013-03-08 12:42:00,68.7,42.8,30.17,SW,232,7.0,8.0,39,0.00,,,0.00,meteohub,2013-03-08 17:42:00,
2013-03-08 12:47:00,68.7,44.1,30.17,SW,220,1.0,8.0,41,0.00,,,0.00,meteohub,2013-03-08 17:47:00,
2013-03-08 12:52:00,69.1,45.0,30.17,West,278,10.0,10.0,42,0.00,,,0.00,meteohub,2013-03-08 17:52:00,
2013-03-08 12:57:00,67.5,44.8,30.17,West,280,7.0,11.0,44,0.00,,,0.00,meteohub,2013-03-08 17:57:00,
2013-03-08 13:02:00,66.9,44.2,30.17,West,267,9.0,12.0,44,0.00,,,0.00,meteohub,2013-03-08 18:02:00,
2013-03-08 13:07:00,66.4,43.9,30.16,WSW,246,5.0,13.0,44,0.00,,,0.00,meteohub,2013-03-08 18:07:00,
2013-03-08 13:12:00,66.6,44.6,30.16,NW,309,6.0,13.0,45,0.00,,,0.00,meteohub,2013-03-08 18:12:00,
2013-03-08 13:17:00,67.1,45.7,30.16,West,281,4.0,12.0,46,0.00,,,0.00,meteohub,2013-03-08 18:17:00,
2013-03-08 13:22:00,66.7,44.8,30.16,West,267,4.0,12.0,45,0.00,,,0.00,meteohub,2013-03-08 18:22:00,
2013-03-08 13:27:00,66.9,45.0,30.15,West,266,9.0,12.0,45,0.00,,,0.00,meteohub,2013-03-08 18:27:00,
2013-03-08 13:32:00,66.9,44.2,30.15,West,264,6.0,12.0,44,0.00,,,0.00,meteohub,2013-03-08 18:32:00,
2013-03-08 13:37:00,66.7,44.8,30.14,West,262,7.0,14.0,45,0.00,,,0.00,meteohub,2013-03-08 18:37:00,
2013-03-08 13:42:00,67.3,44.6,30.14,WNW,294,5.0,15.0,44,0.00,,,0.00,meteohub,2013-03-08 18:42:00,
2013-03-08 13:52:00,67.6,45.0,30.14,WNW,286,8.0,15.0,44,0.00,,,0.00,meteohub,2013-03-08 18:52:00,
2013-03-08 13:57:00,66.7,45.3,30.14,West,272,6.0,15.0,46,0.00,,,0.00,meteohub,2013-03-08 18:57:00,
2013-03-08 14:02:00,66.7,45.3,30.14,NW,307,6.0,15.0,46,0.00,,,0.00,meteohub,2013-03-08 19:02:00,
2013-03-08 14:07:00,66.7,45.3,30.14,NW,316,8.0,15.0,46,0.00,,,0.00,meteohub,2013-03-08 19:07:00,
2013-03-08 14:12:00,66.9,45.5,30.13,WNW,284,10.0,14.0,46,0.00,,,0.00,meteohub,2013-03-08 19:12:00,
2013-03-08 14:17:00,67.3,45.1,30.13,WNW,297,2.0,13.0,45,0.00,,,0.00,meteohub,2013-03-08 19:17:00,
2013-03-08 14:22:00,67.8,45.1,30.13,WNW,302,8.0,12.0,44,0.00,,,0.00,meteohub,2013-03-08 19:22:00,
2013-03-08 14:27:00,68.0,45.3,30.13,WNW,298,2.0,12.0,44,0.00,,,0.00,meteohub,2013-03-08 19:27:00,
2013-03-08 14:32:00,67.5,45.3,30.12,WNW,297,11.0,14.0,45,0.00,,,0.00,meteohub,2013-03-08 19:32:00,
2013-03-08 14:42:00,67.5,44.8,30.12,West,273,8.0,15.0,44,0.00,,,0.00,meteohub,2013-03-08 19:42:00,
2013-03-08 14:47:00,67.8,45.1,30.12,WNW,297,5.0,15.0,44,0.00,,,0.00,meteohub,2013-03-08 19:47:00,
2013-03-08 14:52:00,67.8,45.7,30.12,WNW,298,9.0,13.0,45,0.00,,,0.00,meteohub,2013-03-08 19:52:00,
2013-03-08 14:57:00,67.6,45.5,30.12,NW,316,6.0,13.0,45,0.00,,,0.00,meteohub,2013-03-08 19:57:00,
2013-03-08 15:02:00,68.2,46.0,30.12,WNW,288,5.0,12.0,45,0.00,,,0.00,meteohub,2013-03-08 20:02:00,
2013-03-08 15:07:00,67.8,45.1,30.11,WNW,292,6.0,12.0,44,0.00,,,0.00,meteohub,2013-03-08 20:07:00,
2013-03-08 15:12:00,68.2,46.0,30.11,NW,315,8.0,13.0,45,0.00,,,0.00,meteohub,2013-03-08 20:12:00,
2013-03-08 15:17:00,68.2,44.8,30.11,WNW,289,7.0,13.0,43,0.00,,,0.00,meteohub,2013-03-08 20:17:00,
2013-03-08 15:22:00,68.0,45.3,30.11,West,266,10.0,13.0,44,0.00,,,0.00,meteohub,2013-03-08 20:22:00,
2013-03-08 15:27:00,68.0,45.3,30.11,WNW,288,10.0,13.0,44,0.00,,,0.00,meteohub,2013-03-08 20:27:00,
2013-03-08 15:32:00,67.8,44.4,30.11,WNW,284,6.0,13.0,43,0.00,,,0.00,meteohub,2013-03-08 20:32:00,
2013-03-08 15:37:00,67.8,44.4,30.11,WNW,298,7.0,13.0,43,0.00,,,0.00,meteohub,2013-03-08 20:37:00,
2013-03-08 15:42:00,68.2,44.8,30.11,WNW,294,8.0,13.0,43,0.00,,,0.00,meteohub,2013-03-08 20:42:00,
2013-03-08 15:47:00,68.2,44.8,30.11,WNW,300,9.0,13.0,43,0.00,,,0.00,meteohub,2013-03-08 20:47:00,
2013-03-08 15:52:00,68.4,45.0,30.11,WNW,289,10.0,14.0,43,0.00,,,0.00,meteohub,2013-03-08 20:52:00,
2013-03-08 15:57:00,67.8,45.1,30.11,NW,325,8.0,14.0,44,0.00,,,0.00,meteohub,2013-03-08 20:57:00,
2013-03-08 16:02:00,67.8,45.7,30.11,West,279,6.0,14.0,45,0.00,,,0.00,meteohub,2013-03-08 21:02:00,
2013-03-08 16:07:00,68.2,46.6,30.11,WNW,287,4.0,13.0,46,0.00,,,0.00,meteohub,2013-03-08 21:07:00,
2013-03-08 16:12:00,67.6,46.0,30.11,West,271,7.0,12.0,46,0.00,,,0.00,meteohub,2013-03-08 21:12:00,
2013-03-08 16:17:00,67.1,46.2,30.11,West,275,7.0,12.0,47,0.00,,,0.00,meteohub,2013-03-08 21:17:00,
2013-03-08 16:22:00,66.6,45.7,30.11,WNW,298,5.0,12.0,47,0.00,,,0.00,meteohub,2013-03-08 21:22:00,
2013-03-08 16:32:00,66.2,45.3,30.11,WNW,286,8.0,12.0,47,0.00,,,0.00,meteohub,2013-03-08 21:32:00,
2013-03-08 16:42:00,66.6,45.7,30.11,WNW,295,6.0,11.0,47,0.00,,,0.00,meteohub,2013-03-08 21:42:00,
2013-03-08 16:47:00,66.4,47.1,30.11,WSW,245,8.0,11.0,50,0.00,,,0.00,meteohub,2013-03-08 21:47:00,
2013-03-08 16:57:00,66.0,47.3,30.12,WNW,292,9.0,10.0,51,0.00,,,0.00,meteohub,2013-03-08 21:57:00,
2013-03-08 17:02:00,65.5,46.9,30.11,WNW,286,8.0,12.0,51,0.00,,,0.00,meteohub,2013-03-08 22:02:00,
2013-03-08 17:07:00,64.8,48.2,30.12,West,277,10.0,12.0,55,0.00,,,0.00,meteohub,2013-03-08 22:07:00,
2013-03-08 17:17:00,64.4,47.8,30.12,WNW,290,7.0,12.0,55,0.00,,,0.00,meteohub,2013-03-08 22:17:00,
2013-03-08 17:22:00,64.2,48.2,30.12,WNW,299,2.0,12.0,56,0.00,,,0.00,meteohub,2013-03-08 22:22:00,
2013-03-08 17:27:00,64.0,48.0,30.12,WNW,284,9.0,10.0,56,0.00,,,0.00,meteohub,2013-03-08 22:27:00,
2013-03-08 17:32:00,63.7,48.6,30.12,West,265,8.0,12.0,58,0.00,,,0.00,meteohub,2013-03-08 22:32:00,
2013-03-08 17:37:00,63.3,48.4,30.12,West,280,9.0,12.0,58,0.00,,,0.00,meteohub,2013-03-08 22:37:00,
2013-03-08 17:42:00,63.1,48.2,30.12,WNW,290,6.0,12.0,58,0.00,,,0.00,meteohub,2013-03-08 22:42:00,
2013-03-08 17:47:00,63.0,48.4,30.12,West,278,8.0,11.0,59,0.00,,,0.00,meteohub,2013-03-08 22:47:00,
2013-03-08 17:52:00,62.6,48.0,30.12,WNW,290,6.0,11.0,59,0.00,,,0.00,meteohub,2013-03-08 22:52:00,
2013-03-08 17:57:00,62.2,48.2,30.13,West,280,7.0,10.0,60,0.00,,,0.00,meteohub,2013-03-08 22:57:00,
2013-03-08 18:02:00,61.9,47.8,30.13,WNW,285,8.0,10.0,60,0.00,,,0.00,meteohub,2013-03-08 23:02:00,
2013-03-08 18:07:00,61.5,47.5,30.13,NW,305,6.0,10.0,60,0.00,,,0.00,meteohub,2013-03-08 23:07:00,
2013-03-08 18:12:00,61.3,47.8,30.13,WNW,299,7.0,11.0,61,0.00,,,0.00,meteohub,2013-03-08 23:12:00,
2013-03-08 18:17:00,61.2,48.0,30.13,NW,309,3.0,11.0,62,0.00,,,0.00,meteohub,2013-03-08 23:17:00,
2013-03-08 18:22:00,60.8,48.2,30.13,NW,309,5.0,10.0,63,0.00,,,0.00,meteohub,2013-03-08 23:22:00,
2013-03-08 18:27:00,60.4,48.2,30.13,WNW,303,3.0,10.0,64,0.00,,,0.00,meteohub,2013-03-08 23:27:00,
2013-03-08 18:32:00,60.3,48.4,30.14,WNW,296,3.0,10.0,65,0.00,,,0.00,meteohub,2013-03-08 23:32:00,
2013-03-08 18:37:00,59.9,48.6,30.14,WNW,297,6.0,10.0,66,0.00,,,0.00,meteohub,2013-03-08 23:37:00,
2013-03-08 18:42:00,59.5,48.6,30.14,WNW,290,6.0,9.0,67,0.00,,,0.00,meteohub,2013-03-08 23:42:00,
2013-03-08 18:47:00,59.4,48.7,30.14,NW,323,4.0,8.0,68,0.00,,,0.00,meteohub,2013-03-08 23:47:00,
2013-03-08 18:52:00,59.4,49.1,30.14,NW,313,6.0,8.0,69,0.00,,,0.00,meteohub,2013-03-08 23:52:00,
2013-03-08 19:02:00,59.0,49.3,30.14,NNW,328,4.0,9.0,70,0.00,,,0.00,meteohub,2013-03-09 00:02:00,
2013-03-08 19:07:00,58.8,49.5,30.14,NW,310,4.0,9.0,71,0.00,,,0.00,meteohub,2013-03-09 00:07:00,
2013-03-08 19:12:00,58.6,49.6,30.14,NW,313,6.0,8.0,72,0.00,,,0.00,meteohub,2013-03-09 00:12:00,
2013-03-08 19:17:00,58.6,49.6,30.14,NW,316,3.0,9.0,72,0.00,,,0.00,meteohub,2013-03-09 00:17:00,
2013-03-08 19:22:00,58.5,49.8,30.14,WNW,296,4.0,9.0,73,0.00,,,0.00,meteohub,2013-03-09 00:22:00,
2013-03-08 19:27:00,58.3,49.6,30.14,WNW,303,3.0,9.0,73,0.00,,,0.00,meteohub,2013-03-09 00:27:00,
2013-03-08 19:32:00,58.1,49.5,30.14,NW,309,1.0,6.0,73,0.00,,,0.00,meteohub,2013-03-09 00:32:00,
2013-03-08 19:37:00,57.9,49.6,30.14,NW,309,2.0,6.0,74,0.00,,,0.00,meteohub,2013-03-09 00:37:00,
2013-03-08 19:42:00,57.9,49.6,30.14,NW,309,3.0,6.0,74,0.00,,,0.00,meteohub,2013-03-09 00:42:00,
2013-03-08 19:47:00,57.7,49.5,30.15,NW,324,3.0,5.0,74,0.00,,,0.00,meteohub,2013-03-09 00:47:00,
2013-03-08 19:52:00,57.7,49.8,30.15,NW,320,5.0,6.0,75,0.00,,,0.00,meteohub,2013-03-09 00:52:00,
2013-03-08 19:57:00,57.6,49.6,30.15,NW,321,4.0,6.0,75,0.00,,,0.00,meteohub,2013-03-09 00:57:00,
2013-03-08 20:02:00,57.6,49.6,30.15,NW,321,1.0,6.0,75,0.00,,,0.00,meteohub,2013-03-09 01:02:00,
2013-03-08 20:07:00,57.4,49.5,30.15,NW,323,0.0,6.0,75,0.00,,,0.00,meteohub,2013-03-09 01:07:00,
2013-03-08 20:12:00,57.4,49.5,30.15,NNW,332,4.0,6.0,75,0.00,,,0.00,meteohub,2013-03-09 01:12:00,
2013-03-08 20:17:00,57.2,49.3,30.15,NW,317,4.0,6.0,75,0.00,,,0.00,meteohub,2013-03-09 01:17:00,
2013-03-08 20:22:00,57.0,49.5,30.15,NW,318,2.0,6.0,76,0.00,,,0.00,meteohub,2013-03-09 01:22:00,
2013-03-08 20:27:00,57.0,49.5,30.15,NW,318,2.0,6.0,76,0.00,,,0.00,meteohub,2013-03-09 01:27:00,
2013-03-08 20:32:00,56.8,49.3,30.15,NW,318,3.0,5.0,76,0.00,,,0.00,meteohub,2013-03-09 01:32:00,
2013-03-08 20:37:00,56.7,49.1,30.15,NW,318,2.0,5.0,76,0.00,,,0.00,meteohub,2013-03-09 01:37:00,
2013-03-08 20:42:00,56.5,49.3,30.15,NW,318,3.0,4.0,77,0.00,,,0.00,meteohub,2013-03-09 01:42:00,
2013-03-08 20:47:00,56.5,49.3,30.15,NW,318,2.0,4.0,77,0.00,,,0.00,meteohub,2013-03-09 01:47:00,
2013-03-08 20:52:00,56.5,49.3,30.16,NW,318,2.0,4.0,77,0.00,,,0.00,meteohub,2013-03-09 01:52:00,
2013-03-08 20:57:00,56.3,49.5,30.16,NW,318,2.0,4.0,78,0.00,,,0.00,meteohub,2013-03-09 01:57:00,
2013-03-08 21:02:00,56.1,49.3,30.16,NW,318,1.0,3.0,78,0.00,,,0.00,meteohub,2013-03-09 02:02:00,
2013-03-08 21:07:00,56.1,49.3,30.16,NW,318,1.0,3.0,78,0.00,,,0.00,meteohub,2013-03-09 02:07:00,
2013-03-08 21:12:00,56.1,49.6,30.17,NW,318,1.0,3.0,79,0.00,,,0.00,meteohub,2013-03-09 02:12:00,
2013-03-08 21:22:00,55.9,49.5,30.16,NW,318,2.0,3.0,79,0.00,,,0.00,meteohub,2013-03-09 02:22:00,
2013-03-08 21:27:00,55.8,49.6,30.17,NW,318,1.0,2.0,80,0.00,,,0.00,meteohub,2013-03-09 02:27:00,
2013-03-08 21:37:00,55.6,49.8,30.16,NW,318,3.0,4.0,81,0.00,,,0.00,meteohub,2013-03-09 02:37:00,
2013-03-08 21:42:00,55.6,49.8,30.16,NW,318,3.0,4.0,81,0.00,,,0.00,meteohub,2013-03-09 02:42:00,
2013-03-08 21:47:00,55.4,50.0,30.16,NW,318,2.0,4.0,82,0.00,,,0.00,meteohub,2013-03-09 02:47:00,
2013-03-08 21:57:00,55.6,50.2,30.17,NW,317,2.0,4.0,82,0.00,,,0.00,meteohub,2013-03-09 02:57:00,
2013-03-08 22:02:00,55.6,50.2,30.17,NW,318,3.0,4.0,82,0.00,,,0.00,meteohub,2013-03-09 03:02:00,
2013-03-08 22:07:00,55.8,50.4,30.17,NW,318,3.0,5.0,82,0.00,,,0.00,meteohub,2013-03-09 03:07:00,
2013-03-08 22:12:00,55.8,50.7,30.16,NW,318,2.0,5.0,83,0.00,,,0.00,meteohub,2013-03-09 03:12:00,
2013-03-08 22:17:00,55.8,50.7,30.16,NW,318,0.0,4.0,83,0.00,,,0.00,meteohub,2013-03-09 03:17:00,
2013-03-08 22:22:00,55.8,50.7,30.17,NW,318,1.0,4.0,83,0.00,,,0.00,meteohub,2013-03-09 03:22:00,
2013-03-08 22:27:00,55.4,50.7,30.17,NW,319,2.0,4.0,84,0.00,,,0.00,meteohub,2013-03-09 03:27:00,
2013-03-08 22:32:00,55.0,50.4,30.17,NW,319,2.0,3.0,84,0.00,,,0.00,meteohub,2013-03-09 03:32:00,
2013-03-08 22:37:00,54.7,50.0,30.17,NE,42,3.0,3.0,84,0.00,,,0.00,meteohub,2013-03-09 03:37:00,
2013-03-08 22:42:00,54.0,49.6,30.17,NE,46,3.0,4.0,85,0.00,,,0.00,meteohub,2013-03-09 03:42:00,
2013-03-08 22:47:00,53.6,49.5,30.17,NE,46,0.0,4.0,86,0.00,,,0.00,meteohub,2013-03-09 03:47:00,
2013-03-08 22:52:00,53.4,49.6,30.18,NE,47,1.0,4.0,87,0.00,,,0.00,meteohub,2013-03-09 03:52:00,
2013-03-08 22:57:00,53.2,49.5,30.18,NE,48,2.0,5.0,87,0.00,,,0.00,meteohub,2013-03-09 03:57:00,
2013-03-08 23:02:00,53.1,49.6,30.18,NE,48,1.0,5.0,88,0.00,,,0.00,meteohub,2013-03-09 04:02:00,
2013-03-08 23:07:00,53.1,49.6,30.17,NE,53,0.0,6.0,88,0.00,,,0.00,meteohub,2013-03-09 04:07:00,
2013-03-08 23:12:00,52.9,49.5,30.18,NE,53,1.0,6.0,88,0.00,,,0.00,meteohub,2013-03-09 04:12:00,
2013-03-08 23:17:00,52.9,49.5,30.18,NE,53,4.0,6.0,88,0.00,,,0.00,meteohub,2013-03-09 04:17:00,
2013-03-08 23:22:00,52.9,49.5,30.18,NE,53,2.0,5.0,88,0.00,,,0.00,meteohub,2013-03-09 04:22:00,
2013-03-08 23:32:00,52.7,49.3,30.18,NE,53,1.0,5.0,88,0.00,,,0.00,meteohub,2013-03-09 04:32:00,
2013-03-08 23:37:00,52.5,48.7,30.18,NE,53,1.0,4.0,87,0.00,,,0.00,meteohub,2013-03-09 04:37:00,
2013-03-08 23:42:00,52.3,48.9,30.17,NE,53,0.0,4.0,88,0.00,,,0.00,meteohub,2013-03-09 04:42:00,
2013-03-08 23:47:00,52.3,48.9,30.17,NE,53,1.0,4.0,88,0.00,,,0.00,meteohub,2013-03-09 04:47:00,
2013-03-08 23:52:00,52.3,48.6,30.17,ENE,62,2.0,3.0,87,0.00,,,0.00,meteohub,2013-03-09 04:52:00,
2013-03-08 23:57:00,52.5,48.7,30.17,ENE,63,0.0,5.0,87,0.00,,,0.00,meteohub,2013-03-09 04:57:00,